Weather History for Mount Ida, AR

Change the Weather History Date:

Monday, March 17, 2014

  Actual Average (KHOT) Record (KHOT)
Temperature  
Mean Temperature 46 °F -  
Max Temperature 59 °F 66 °F 87 °F (1982)
Min Temperature 34 °F 42 °F 26 °F (1960)
Degree Days  
Heating Degree Days 20    
Moisture  
Dew Point 35 °F    
Average Humidity 77    
Maximum Humidity 96    
Minimum Humidity 47    
Precipitation  
Precipitation 0.00 in - - ()
Sea Level Pressure  
Sea Level Pressure 29.88 in    
Wind  
Wind Speed 3 mph (NNW)    
Max Wind Speed 8 mph    
Max Gust Speed -    
Visibility 10 miles    
Events      
Averages and records for this station are not official NWS values.
T = Trace of Precipitation, MM = Missing Value Source: NWS Daily Summary

Daily Weather History Graph

Daily Weather History Graph

Search for Another Location

Airport:

Trip Planner

Search our weather history database for the weather conditions in past years. The results will help you decide how hot, cold, wet, or windy it might be!

Date:

Astronomy

Mar. 17, 2014 Rise Set
Actual Time 7:22 AM CDT 7:23 PM CDT
Civil Twilight 6:57 AM CDT 7:48 PM CDT
Nautical Twilight 6:27 AM CDT 8:18 PM CDT
Astronomical Twilight 5:58 AM CDT 8:47 PM CDT
Moon 8:36 PM CDT (3/17) 7:41 AM CDT (3/17)
Length of Visible Light 12h 51m
Length of Day
12h 01m
Full, 99% of the Moon is Illuminated
Mar 17
Full
Mar 23
Last Quarter
Mar 30
New
Apr 7
First Quarter
Apr 15
Full

Hourly Weather History & Observations

Time (CDT) Temp. Windchill Dew Point Humidity Pressure Visibility Wind Dir Wind Speed Gust Speed Precip Events Conditions
12:43 AM 35.1 °F - 33.1 °F 92% 29.96 in 10.0 mi Calm Calm - 0.00 in   Overcast
12:53 AM 35.1 °F 32.2 °F 34.0 °F 96% 29.98 in 10.0 mi NNW 3.5 mph - 0.00 in   Overcast
1:53 AM 35.1 °F 29.3 °F 32.0 °F 89% 29.98 in 10.0 mi NNW 6.9 mph - N/A   Overcast
2:53 AM 35.1 °F 30.1 °F 32.0 °F 89% 29.97 in 10.0 mi NNW 5.8 mph - N/A   Overcast
3:53 AM 34.0 °F - 32.0 °F 92% 29.93 in 10.0 mi Calm Calm - N/A   Mostly Cloudy
4:45 AM 34.0 °F 29.8 °F 32.0 °F 92% 29.89 in 10.0 mi NNW 4.6 mph - N/A   Overcast
4:53 AM 34.0 °F 31.0 °F 32.0 °F 92% 29.92 in 10.0 mi Variable 3.5 mph - N/A   Overcast
5:30 AM 35.1 °F 32.2 °F 30.9 °F 85% 29.89 in 10.0 mi North 3.5 mph - N/A   Overcast
5:53 AM 34.0 °F 31.0 °F 30.9 °F 89% 29.94 in 10.0 mi Variable 3.5 mph - N/A   Overcast
6:07 AM 34.0 °F 31.0 °F 30.9 °F 89% 29.90 in 10.0 mi Variable 3.5 mph - N/A   Overcast
6:53 AM 34.0 °F - 30.9 °F 89% 29.94 in 10.0 mi Calm Calm - N/A   Overcast
7:11 AM 34.0 °F 29.8 °F 30.9 °F 89% 29.91 in 10.0 mi Variable 4.6 mph - N/A   Overcast
7:39 AM 34.0 °F - 32.0 °F 92% 29.91 in 9.0 mi Calm Calm - N/A   Overcast
7:53 AM 34.0 °F 29.8 °F 30.9 °F 89% 29.95 in 9.0 mi NNW 4.6 mph - N/A   Overcast
8:53 AM 35.1 °F 29.3 °F 30.9 °F 85% 29.95 in 10.0 mi NNW 6.9 mph - N/A   Overcast
9:53 AM 37.0 °F 34.5 °F 32.0 °F 82% 29.94 in 10.0 mi Variable 3.5 mph - N/A   Overcast
10:39 AM 39.9 °F 37.8 °F 33.1 °F 77% 29.89 in 10.0 mi Variable 3.5 mph - N/A   Scattered Clouds
10:53 AM 41.0 °F 39.0 °F 35.1 °F 79% 29.91 in 10.0 mi Variable 3.5 mph - N/A   Clear
11:29 AM 43.0 °F 41.3 °F 35.1 °F 74% 29.87 in 10.0 mi West 3.5 mph - N/A   Mostly Cloudy
11:48 AM 44.6 °F - 35.6 °F 71% 29.87 in 10.0 mi Calm Calm - N/A   Scattered Clouds
11:53 AM 45.0 °F 41.8 °F 35.1 °F 68% 29.89 in 10.0 mi Variable 5.8 mph - N/A   Partly Cloudy
12:53 PM 50.0 °F - 37.9 °F 63% 29.86 in 10.0 mi Variable 3.5 mph - N/A   Scattered Clouds
1:53 PM 53.1 °F - 37.0 °F 55% 29.83 in 10.0 mi Calm Calm - N/A   Clear
2:53 PM 55.9 °F - 37.0 °F 49% 29.81 in 10.0 mi North - - N/A   Clear
3:53 PM 57.0 °F - 37.0 °F 47% 29.78 in 10.0 mi Calm Calm - N/A   Partly Cloudy
4:53 PM 57.9 °F - 37.9 °F 47% 29.78 in 10.0 mi Variable 3.5 mph - N/A   Mostly Cloudy
5:53 PM 57.9 °F - 39.0 °F 49% 29.77 in 10.0 mi Variable 4.6 mph - N/A   Partly Cloudy
6:53 PM 54.0 °F - 39.9 °F 59% 29.76 in 10.0 mi SSE 4.6 mph - N/A   Clear
7:53 PM 51.1 °F - 39.9 °F 66% 29.77 in 10.0 mi Variable 4.6 mph - N/A   Clear
8:53 PM 50.0 °F - 39.9 °F 68% 29.78 in 10.0 mi SSE 4.6 mph - N/A   Clear
9:53 PM 46.9 °F - 39.9 °F 77% 29.80 in 10.0 mi Variable 3.5 mph - N/A   Clear
10:53 PM 45.0 °F 40.6 °F 39.0 °F 80% 29.79 in 10.0 mi SSE 8.1 mph - N/A   Clear
11:53 PM 42.1 °F 38.4 °F 39.0 °F 89% 29.79 in 10.0 mi Variable 5.8 mph - N/A   Clear